This demonstration page uses our WeatherBlox Daily Observations layout. Learn more.

Left ArrowRight Arrow

Hourly Observations for August 19, 2019

Temp ( °F °C ) Dew Point ( °F °C ) Humidity (%) Winds ( mph kmh ) Pressure ( in mb ) Visibility ( mi km ) Precip ( " mm )
12:53 am 00:53 Clear 91 32.8 60 15.6 35 35 SSE 17 28 29.75 1008 10 16 0.00 0.00
1:53 am 01:53 Clear 89 31.7 60 15.6 38 38 SSE 15 24 29.75 1008 10 16 0.00 0.00
2:53 am 02:53 Clear 87 30.6 60 15.6 40 40 SSE 15 24 29.75 1008 10 16 0.00 0.00
3:53 am 03:53 Clear 86 30 60 15.6 42 42 SSE 16 26 29.75 1008 10 16 0.00 0.00
4:53 am 04:53 Clear 85 29.4 60 15.6 43 43 SE 14 22 29.76 1008 10 16 0.00 0.00
5:53 am 05:53 Clear 85 29.4 60 15.6 43 43 SE 18 30 29.77 1008 10 16 0.00 0.00
6:53 am 06:53 Clear 83 28.3 61 16.1 48 48 SSE 16 26 29.79 1009 10 16 0.00 0.00
7:53 am 07:53 Sunny 82 27.8 64 17.8 55 55 SE 13 20 29.80 1009 10 16 0.00 0.00
8:53 am 08:53 Sunny 83 28.3 65 18.3 55 55 SSE 17 28 29.82 1010 10 16 0.00 0.00
9:53 am 09:53 Sunny 88 31.1 65 18.3 46 46 SE 15 24 29.82 1010 10 16 0.00 0.00
10:53 am 10:53 Sunny 91 32.8 64 17.8 41 41 SE 15 24 29.83 1010 10 16 0.00 0.00
11:53 am 11:53 Sunny 94 34.4 63 17.2 36 36 SSE 15 24 29.83 1010 10 16 0.00 0.00
12:53 pm 12:53 Sunny 98 36.7 62 16.7 31 31 ESE 16 26 29.83 1010 10 16 0.00 0.00
1:53 pm 13:53 Sunny 100 37.8 59 15 26 26 SE 15 24 29.81 1009 10 16 0.00 0.00
2:53 pm 14:53 Sunny 103 39.4 55 12.8 20 20 ESE 10 17 29.78 1009 10 16 0.00 0.00
3:53 pm 15:53 Sunny 104 40 46 7.8 14 14 SE 17 28 29.76 1008 10 16 0.00 0.00
4:53 pm 16:53 Sunny 104 40 51 10.6 17 17 SE 18 30 29.74 1007 10 16 0.00 0.00
5:53 pm 17:53 Sunny 103 39.4 51 10.6 18 18 SSE 21 33 29.74 1007 10 16 0.00 0.00
6:53 pm 18:53 Sunny 102 38.9 49 9.4 17 17 SE 18 30 29.75 1007 10 16 0.00 0.00
7:53 pm 19:53 Sunny 98 36.7 49 9.4 19 19 SE 20 31 29.77 1008 10 16 0.00 0.00
8:53 pm 20:53 Clear 95 35 51 10.6 23 23 SE 15 24 29.79 1009 10 16 0.00 0.00
9:53 pm 21:53 Clear 92 33.3 54 12.2 28 28 SE 15 24 29.81 1010 10 16 0.00 0.00
10:53 pm 22:53 Clear 90 32.2 54 12.2 29 29 SE 14 22 29.84 1011 10 16 0.00 0.00
11:53 pm 23:53 Clear 88 31.1 51 10.6 28 28 SSE 16 26 29.85 1011 10 16 0.00 0.00

Powered by AerisWeather